Temperature
17 16 16 16 15 15 14 14 14 13 13 13 13 13 12 12 13 13 13 13 13 13 13 13 13 13 14 14 14 13 13 13 14 13 13 13 13 13 13 13 14 14 13
16 16 16 15 15 15 14 14 13 13 13 12 12 12 12 12 12 12 12 12 12 12 13 13 13 13 13 13 13 13 13 13 13 13 12 12 12 13 13 13 13 13 13
15 15 15 15 15 14 14 13 13 13 12 12 12 12 11 12 12 12 12 12 12 12 12 12 12 12 13 13 13 13 13 13 13 13 12 12 12 12 12 12 12 12 12
14 14 15 15 15 14 14 13 13 12 12 12 12 11 11 11 11 11 11 11 12 12 12 12 12 12 12 12 12 12 12 12 12 12 12 12 12 12 12 12 12 12 12
13 13 14 14 14 14 13 13 13 12 12 12 11 11 11 11 11 11 11 11 11 11 11 11 11 11 11 12 12 12 12 12 12 12 12 12 11 11 11 11 11 11 11
11 12 12 13 13 13 13 13 12 12 12 12 11 11 11 11 11 11 11 11 11 11 11 11 11 11 11 11 11 11 12 12 12 12 12 11 11 11 11 11 11 11 11
10 11 11 11 12 12 12 12 12 12 12 12 11 11 11 11 11 10 10 11 11 11 11 11 11 10 11 11 11 11 11 11 11 11 11 11 10 10 10 10 10 10 10
10 10 10 10 11 11 11 11 11 11 11 11 11 11 11 11 10 10 10 10 10 10 10 11 11 11 11 11 11 11 11 10 10 10 11 10 10 10 10 10 10 9 9
9 9 9 9 10 10 10 11 11 11 11 11 11 11 11 11 10 10 10 10 10 10 10 10 10 11 10 11 11 11 10 10 10 10 10 10 9 9 9 9 9 9 9
9 9 9 9 9 9 9 10 10 10 11 11 11 11 11 11 10 10 10 10 10 10 10 10 10 10 10 10 10 10 10 10 10 9 9 9 9 9 9 9 8 8 8
9 9 9 9 8 8 9 9 9 10 10 10 11 11 11 11 10 10 10 10 10 10 10 10 10 10 10 10 10 10 10 10 9 9 9 9 8 8 8 8 8 8 8
9 9 9 8 8 8 8 8 8 9 10 10 10 10 10 10 10 10 10 10 10 10 10 10 10 10 10 10 10 10 10 9 9 9 9 8 8 8 7 7 7 7 7
8 8 8 8 8 8 8 8 8 8 9 9 10 10 10 10 10 10 10 10 10 10 10 10 9 9 9 9 9 9 9 9 9 8 8 8 7 7 7 7 7 7 7
7 8 8 8 8 8 7 7 7 7 8 9 9 10 10 10 10 10 10 10 10 10 10 9 9 9 9 9 9 8 8 8 8 8 8 7 7 7 7 7 7 7 7
7 7 7 7 7 7 7 7 7 7 8 9 10 10 10 10 10 10 10 10 10 10 10 9 9 9 9 9 8 8 8 8 8 7 7 7 7 7 7 7 7 7 6
6 6 6 6 7 7 7 7 7 7 8 8 9 10 11 11 11 11 10 10 10 10 10 9 9 9 9 9 8 8 8 8 7 7 7 7 7 7 7 7 7 6 6
5 5 6 6 6 6 6 6 7 7 8 8 9 10 11 11 11 11 10 10 10 10 9 9 9 9 9 9 8 8 8 8 7 7 7 7 7 7 7 7 6 6 6
5 5 5 5 5 6 6 6 6 6 7 8 9 9 10 10 11 10 10 10 9 9 9 9 9 9 9 9 9 8 8 8 8 8 7 7 7 7 7 7 6 6 6
4 4 4 5 5 5 6 6 6 6 7 8 8 9 9 10 10 10 10 10 10 10 9 9 9 9 9 9 9 9 8 8 8 8 8 8 7 7 7 7 7 6 6
4 4 4 4 5 5 6 6 6 7 7 8 8 9 9 9 9 9 9 10 10 10 10 9 9 9 9 9 9 9 9 8 8 8 8 8 8 8 7 7 7 6 6
3 4 4 4 4 5 5 6 6 7 7 8 8 9 9 9 9 10 10 10 10 10 10 10 10 9 9 9 9 9 9 9 9 9 8 8 8 8 8 7 7 7 6
3 3 4 4 4 5 5 6 6 7 7 8 8 9 9 10 10 10 10 10 10 10 10 10 10 10 10 10 10 9 9 9 9 9 9 9 9 8 8 8 7 7 7
3 3 4 4 5 5 6 6 7 7 8 8 9 9 9 9 10 10 10 11 10 10 10 10 10 10 10 10 10 10 10 10 10 9 9 9 9 9 9 8 8 7 7
3 3 4 4 5 5 6 6 7 7 8 9 9 10 10 10 10 11 11 11 11 10 10 10 10 10 10 10 10 10 10 10 10 10 10 9 9 9 9 9 8 8 7
4 4 4 5 5 6 6 7 7 8 8 9 10 10 10 10 11 11 11 11 11 10 10 10 10 10 10 10 10 10 10 10 10 10 10 10 9 9 9 9 9 8 8
4 4 5 5 5 6 7 7 7 8 9 9 10 11 11 11 11 11 11 11 11 10 10 10 10 10 10 10 10 10 10 10 10 10 10 10 10 10 10 9 9 9 8
Wind_Speed
6 6 6 6 5 4 4 4 4 5 6 7 8 9 9 9 8 6 6 6 6 5 5 7 7 6 5 5 4 4 3 4 5 3 3 4 5 7 7 8 9 9 9
8 7 8 7 6 5 5 5 4 5 5 6 7 8 8 8 8 6 4 2 2 3 3 5 5 5 5 5 4 5 4 5 7 7 3 4 6 6 6 7 7 8 9
9 8 8 8 8 7 6 5 4 4 4 5 6 7 7 7 7 6 5 5 4 4 3 5 6 7 7 6 7 7 7 7 7 8 5 3 5 5 6 6 8 7 7
10 9 9 10 9 8 7 6 5 4 3 3 4 5 6 6 6 6 6 7 7 8 7 7 6 7 8 9 9 9 9 10 9 9 6 4 5 4 4 5 6 6 7
11 11 10 10 8 8 7 7 6 4 3 2 2 4 4 4 4 5 5 7 8 8 9 8 8 10 11 9 9 9 10 10 9 9 7 6 5 5 4 3 4 3 6
11 11 11 9 7 8 9 8 7 6 4 2 1 1 2 2 4 6 5 6 7 8 9 9 10 12 16 16 15 13 11 11 10 8 7 7 5 4 3 4 3 3 3
10 10 10 9 8 8 8 8 9 8 5 4 3 2 1 1 3 5 6 6 6 6 7 8 9 10 12 13 16 17 15 13 10 8 9 6 4 2 3 5 4 5 4
10 10 10 10 10 8 7 9 10 7 7 6 5 5 3 3 5 6 7 7 7 7 7 8 9 8 9 12 12 12 10 9 8 7 7 5 4 3 2 3 3 3 3
11 10 10 9 10 9 9 9 10 9 9 8 6 7 6 5 8 10 9 6 7 7 6 6 8 9 11 14 13 12 10 8 10 12 11 10 11 8 4 4 4 5 5
12 11 10 9 9 10 10 10 9 10 11 10 9 8 8 8 10 12 11 7 7 6 5 6 8 9 11 12 11 11 10 7 7 9 9 10 10 11 11 6 4 4 3
13 11 11 10 9 10 9 8 8 10 12 11 11 9 9 9 12 14 13 8 8 8 6 5 5 10 11 11 10 9 11 9 9 9 9 8 8 7 7 6 5 5 5
12 12 12 11 10 10 8 9 8 9 13 13 12 10 7 8 11 13 15 12 11 9 7 5 6 11 13 12 10 12 14 11 8 8 8 7 6 5 5 6 6 7 6
12 13 13 12 10 9 8 9 8 8 10 13 13 12 10 8 9 14 14 14 13 7 7 10 11 14 13 11 13 13 10 8 8 8 7 4 3 3 3 3 5 5 7
13 13 12 11 11 9 7 7 7 7 8 12 14 14 12 10 9 9 9 9 10 10 9 11 12 13 10 10 9 7 6 7 7 7 5 4 3 4 4 4 4 4 6
12 12 11 11 10 10 9 7 8 8 9 12 14 15 16 14 14 17 14 11 11 11 11 7 6 6 6 6 5 6 6 6 6 4 5 5 5 5 4 3 3 4 4
12 11 10 9 9 9 9 10 11 11 14 16 17 17 17 18 20 20 19 19 19 19 12 9 8 8 8 8 7 5 4 5 5 5 5 5 5 5 4 3 3 4 4
13 11 9 9 9 9 9 9 10 9 11 14 17 19 18 20 22 21 20 20 20 19 10 10 9 9 9 8 8 7 5 5 5 6 6 5 5 4 4 4 4 3 3
13 15 13 9 9 9 9 9 8 8 8 7 11 18 20 22 23 21 21 17 12 10 9 12 11 10 9 9 8 7 6 6 5 5 5 5 5 4 4 3 3 3 3
12 10 10 9 9 9 9 9 8 9 8 8 8 11 16 19 20 22 21 12 15 13 10 11 11 10 10 9 9 9 8 8 7 6 5 5 5 4 4 3 3 4 2
11 16 14 9 9 9 9 9 8 8 7 9 12 13 13 12 11 14 13 12 14 14 12 11 11 10 10 10 9 9 9 8 8 7 6 6 5 5 5 5 4 4 3
9 11 15 11 8 9 9 9 8 7 6 9 11 15 19 17 16 17 16 13 14 14 13 11 11 11 10 9 10 11 11 9 9 8 7 7 6 5 5 5 5 4 4
8 8 8 8 8 8 9 8 7 7 7 10 11 12 19 15 15 15 15 14 13 12 12 12 11 11 11 11 11 11 11 11 10 9 8 8 7 7 6 5 5 5 5
8 8 8 8 8 9 9 8 7 7 7 11 12 13 15 14 15 15 15 14 12 11 11 11 11 11 10 10 11 12 13 13 12 11 10 9 8 8 7 8 8 7 7
7 8 8 7 7 7 8 7 7 7 8 11 13 14 15 14 14 15 14 13 12 11 11 11 12 14 15 12 11 13 14 15 14 12 13 11 11 9 9 9 9 10 9
6 7 7 7 7 7 7 7 7 7 9 12 12 13 14 14 13 13 12 12 13 12 13 12 11 13 16 17 15 15 17 18 16 14 12 11 12 11 11 11 10 10 9
6 6 6 6 7 7 6 6 7 8 10 12 12 12 13 14 13 13 12 12 12 11 12 11 13 14 15 16 18 18 17 18 18 17 14 10 11 11 12 11 13 11 11
Wind_Direction
299 279 264 253 246 249 261 276 291 301 313 322 325 325 325 322 317 301 281 262 246 236 220 211 209 195 185 179 171 161 152 134 124 97 53 43 58 68 65 68 71 73 72
310 289 270 259 250 249 257 269 282 298 313 323 329 334 339 340 340 336 324 299 241 219 200 181 172 161 148 142 137 132 128 121 126 120 74 51 57 60 66 66 62 66 68
321 304 282 264 251 247 250 259 269 287 312 330 340 345 347 353 2 12 25 44 60 74 101 126 129 127 118 113 111 112 111 109 108 115 98 63 64 55 65 66 61 54 57
328 316 296 274 254 246 242 245 252 263 291 324 341 345 352 5 16 28 46 58 64 63 64 75 90 104 112 113 110 111 112 108 105 106 100 79 65 51 67 70 68 52 45
330 324 309 293 268 249 240 237 240 245 256 288 332 347 356 10 29 40 58 69 71 70 64 64 77 95 99 104 115 115 113 110 106 103 99 89 71 62 62 57 78 66 50
330 325 320 310 286 259 245 235 231 234 239 244 268 331 5 22 46 60 73 80 81 82 80 76 80 86 90 90 94 97 106 113 113 107 101 97 87 75 67 67 68 61 42
321 324 327 319 302 279 257 239 230 224 218 215 212 190 159 104 98 87 78 81 80 83 89 91 94 95 97 99 89 83 81 86 100 113 107 106 103 97 95 83 73 72 61
307 313 319 320 308 293 268 246 235 222 211 208 200 188 172 172 152 129 103 87 81 73 79 97 107 103 107 109 103 93 84 76 85 93 104 102 103 110 103 103 100 90 72
294 298 305 313 313 302 280 261 240 221 213 205 195 184 176 175 165 147 127 107 95 81 76 93 111 109 115 114 110 104 94 82 79 86 86 82 79 77 95 99 83 80 57
282 284 288 294 304 305 290 274 249 223 215 204 194 188 180 175 169 155 138 129 116 106 89 83 100 117 122 122 122 122 116 112 109 94 76 64 66 62 60 68 88 89 73
275 277 280 282 287 295 297 288 263 229 211 202 192 187 184 177 173 165 156 146 142 134 125 111 104 116 116 117 120 123 131 127 113 103 92 79 71 64 58 58 62 79 79
279 277 277 277 283 298 301 297 276 238 212 200 190 182 185 179 174 178 172 158 150 142 141 133 122 118 112 110 110 118 119 115 110 103 95 85 77 68 60 62 65 68 69
279 275 275 275 273 276 286 294 289 253 218 201 190 186 185 182 181 180 176 162 150 135 140 139 128 118 107 104 111 116 115 114 111 108 104 92 79 67 75 75 62 65 68
275 274 274 274 275 273 275 279 283 268 228 205 191 187 182 179 178 173 171 158 141 127 127 121 112 105 99 100 100 100 105 114 119 118 113 102 95 87 72 68 65 58 60
272 272 272 270 270 271 272 271 271 266 240 215 197 187 181 184 186 173 166 165 159 149 137 125 122 124 120 115 108 106 110 115 112 116 121 118 106 92 78 71 76 75 68
268 269 269 270 270 270 274 282 267 263 251 227 207 188 187 182 169 169 167 161 152 148 142 149 151 153 153 150 143 133 131 132 131 133 130 125 116 108 100 90 89 86 78
257 261 263 265 267 269 271 278 289 290 254 218 201 188 179 166 164 167 162 153 151 149 150 162 164 166 166 163 160 156 156 153 148 145 138 134 128 122 116 110 107 99 85
255 260 262 258 260 264 263 266 274 279 263 212 196 184 171 164 164 159 145 136 154 167 169 171 173 174 172 172 171 166 159 156 157 155 149 147 145 139 134 132 131 125 108
256 255 256 255 257 260 260 263 267 265 244 203 177 176 171 161 155 152 152 163 172 179 178 177 177 177 178 178 177 173 169 170 170 166 165 163 161 154 153 156 153 144 136
253 257 259 256 256 259 258 262 259 249 228 194 182 173 160 152 159 167 177 176 177 181 181 180 181 180 180 180 179 177 176 178 178 180 180 178 177 176 176 177 176 173 172
249 251 260 262 254 253 257 260 245 231 214 194 181 172 167 171 173 177 183 183 181 182 181 182 182 183 182 180 180 182 184 188 190 192 191 189 188 190 192 190 189 189 184
241 240 244 247 250 252 258 253 234 224 212 192 172 167 168 171 174 177 183 187 186 184 181 180 183 186 184 183 183 186 191 195 198 199 200 199 198 199 196 195 196 194 195
235 238 242 243 244 249 255 247 229 219 201 179 168 166 175 176 176 178 182 185 183 181 179 180 183 187 188 187 188 189 195 201 204 202 202 204 205 204 202 204 203 202 205
231 234 239 242 242 245 248 239 219 206 187 172 167 170 176 178 178 180 180 180 179 180 180 183 188 191 190 190 194 198 204 207 205 206 205 208 209 210 209 211 212 212 211
226 229 233 236 238 242 243 226 207 199 179 169 169 172 176 178 178 178 177 177 177 180 183 185 190 193 196 196 198 204 208 206 204 206 206 211 216 215 214 216 216 213 208
223 228 230 232 236 237 228 212 199 187 173 168 169 170 173 177 178 176 175 175 179 182 185 189 195 195 197 201 207 208 206 207 208 206 208 212 218 222 219 220 219 213 206
Height
1487 1485 1482 1480 1476 1473 1470 1467 1463 1459 1456 1452 1448 1444 1440 1436 1433 1430 1428 1427 1428 1428 1429 1431 1433 1435 1438 1440 1443 1445 1447 1450 1452 1455 1457 1459 1461 1462 1463 1464 1464 1464 1464
1482 1480 1478 1475 1473 1470 1467 1464 1460 1457 1453 1450 1446 1442 1438 1435 1431 1428 1425 1424 1424 1424 1425 1427 1429 1432 1434 1437 1440 1442 1445 1447 1450 1452 1456 1459 1461 1462 1463 1464 1464 1464 1464
1477 1474 1472 1470 1468 1466 1463 1461 1458 1454 1451 1448 1444 1441 1437 1434 1431 1427 1425 1423 1423 1423 1424 1425 1427 1430 1432 1435 1438 1440 1444 1447 1450 1453 1456 1459 1461 1462 1463 1464 1464 1464 1465
1472 1469 1466 1464 1462 1461 1459 1457 1455 1452 1449 1446 1443 1440 1437 1434 1431 1429 1426 1425 1424 1424 1424 1425 1427 1429 1432 1434 1437 1441 1444 1447 1451 1454 1457 1460 1462 1463 1464 1465 1465 1466 1465
1467 1463 1460 1457 1455 1454 1453 1453 1451 1449 1447 1445 1442 1440 1438 1435 1433 1431 1429 1427 1426 1427 1427 1428 1429 1431 1434 1437 1440 1443 1446 1450 1453 1456 1458 1460 1462 1464 1465 1466 1466 1467 1467
1463 1459 1455 1451 1449 1448 1447 1447 1447 1445 1444 1443 1441 1440 1438 1437 1435 1433 1432 1431 1430 1430 1430 1432 1433 1435 1438 1441 1444 1447 1450 1453 1455 1457 1459 1461 1463 1464 1466 1467 1467 1467 1467
1459 1455 1451 1446 1443 1442 1441 1441 1441 1441 1441 1440 1439 1439 1438 1437 1436 1435 1435 1434 1434 1434 1435 1436 1437 1440 1442 1444 1448 1450 1453 1456 1458 1460 1461 1463 1464 1465 1466 1467 1467 1467 1467
1455 1451 1447 1442 1439 1436 1435 1435 1435 1436 1436 1437 1436 1437 1437 1437 1437 1437 1437 1437 1438 1438 1439 1441 1442 1444 1447 1448 1451 1453 1455 1458 1460 1462 1463 1464 1465 1466 1467 1468 1468 1468 1468
1450 1447 1442 1438 1434 1431 1429 1428 1428 1429 1430 1432 1433 1434 1434 1435 1436 1437 1438 1439 1440 1441 1443 1444 1446 1448 1450 1452 1453 1455 1457 1460 1462 1463 1464 1465 1466 1467 1468 1468 1468 1468 1468
1444 1441 1437 1433 1429 1426 1423 1421 1421 1421 1423 1426 1428 1429 1431 1433 1435 1437 1438 1440 1441 1442 1444 1446 1448 1450 1452 1454 1455 1457 1458 1461 1463 1465 1466 1467 1467 1468 1468 1468 1468 1468 1468
1437 1434 1430 1427 1424 1420 1416 1414 1412 1412 1414 1418 1422 1424 1427 1430 1432 1435 1438 1439 1441 1443 1445 1447 1449 1451 1452 1454 1456 1458 1460 1462 1464 1465 1466 1467 1468 1469 1469 1469 1469 1469 1469
1428 1425 1423 1420 1417 1413 1410 1406 1404 1403 1405 1409 1414 1418 1422 1426 1429 1433 1436 1439 1441 1443 1445 1447 1449 1451 1453 1455 1457 1459 1460 1463 1464 1466 1467 1468 1469 1470 1470 1471 1471 1470 1470
1420 1417 1414 1412 1409 1407 1403 1400 1396 1395 1394 1399 1404 1410 1415 1421 1425 1430 1434 1438 1441 1443 1445 1447 1449 1452 1454 1456 1458 1460 1461 1463 1465 1466 1468 1469 1470 1471 1472 1472 1472 1472 1472
1410 1407 1405 1403 1400 1398 1396 1393 1389 1386 1386 1390 1395 1401 1408 1414 1420 1425 1430 1435 1438 1442 1444 1447 1450 1452 1455 1457 1459 1461 1463 1464 1466 1467 1469 1470 1471 1473 1473 1474 1474 1474 1473
1400 1398 1396 1394 1392 1389 1387 1384 1381 1379 1378 1381 1386 1393 1399 1406 1413 1419 1425 1430 1435 1439 1443 1446 1449 1452 1455 1457 1459 1461 1463 1465 1466 1468 1469 1471 1472 1473 1474 1474 1475 1475 1474
1390 1388 1386 1385 1383 1381 1378 1375 1373 1371 1370 1373 1379 1387 1393 1401 1409 1416 1422 1428 1433 1437 1441 1444 1448 1451 1454 1457 1459 1461 1463 1465 1467 1468 1470 1472 1473 1474 1474 1475 1475 1475 1475
1379 1378 1376 1375 1374 1372 1370 1368 1365 1363 1362 1366 1372 1381 1388 1396 1405 1412 1418 1424 1430 1434 1438 1442 1446 1450 1453 1456 1459 1461 1463 1465 1467 1469 1470 1472 1473 1474 1475 1475 1476 1476 1476
1368 1367 1366 1365 1365 1363 1362 1361 1359 1357 1356 1358 1366 1374 1383 1392 1400 1408 1414 1420 1425 1430 1435 1439 1444 1448 1452 1455 1458 1461 1463 1465 1467 1469 1471 1472 1473 1474 1475 1475 1476 1476 1476
1356 1355 1355 1355 1355 1355 1355 1354 1352 1351 1351 1354 1360 1368 1378 1388 1396 1403 1409 1415 1420 1425 1431 1436 1441 1446 1450 1453 1457 1459 1462 1464 1467 1469 1470 1472 1473 1474 1475 1475 1476 1476 1476
1345 1345 1346 1346 1346 1346 1347 1346 1345 1345 1346 1349 1356 1362 1372 1381 1389 1396 1403 1410 1416 1421 1427 1433 1438 1443 1447 1451 1455 1458 1461 1463 1466 1468 1470 1471 1473 1474 1474 1475 1475 1475 1475
1334 1335 1336 1337 1338 1339 1339 1339 1339 1340 1341 1346 1352 1359 1367 1375 1383 1391 1398 1405 1412 1418 1423 1429 1435 1440 1444 1448 1452 1455 1459 1461 1464 1466 1469 1470 1472 1473 1473 1474 1474 1474 1474
1325 1326 1328 1329 1331 1332 1333 1333 1334 1336 1338 1343 1349 1356 1365 1373 1380 1387 1394 1401 1408 1414 1420 1426 1431 1436 1441 1445 1449 1453 1456 1459 1462 1464 1466 1468 1470 1471 1472 1472 1472 1472 1472
1318 1319 1321 1323 1325 1326 1327 1328 1330 1332 1336 1341 1346 1353 1361 1369 1377 1384 1391 1398 1405 1411 1417 1423 1428 1433 1438 1442 1446 1450 1453 1456 1459 1461 1464 1466 1467 1468 1469 1469 1470 1470 1470
1311 1313 1315 1317 1319 1321 1322 1324 1326 1329 1333 1339 1345 1352 1359 1367 1375 1382 1389 1396 1402 1408 1414 1419 1424 1429 1434 1438 1442 1446 1450 1453 1456 1458 1461 1462 1464 1465 1466 1466 1466 1466 1466
1307 1309 1311 1313 1315 1317 1319 1321 1324 1327 1332 1337 1344 1351 1358 1366 1373 1380 1387 1393 1399 1405 1410 1415 1420 1425 1430 1434 1438 1442 1445 1449 1452 1454 1457 1459 1460 1461 1461 1462 1462 1462 1462
1304 1306 1308 1310 1311 1313 1316 1319 1322 1326 1331 1337 1344 1350 1357 1364 1371 1378 1384 1390 1396 1401 1406 1411 1416 1421 1425 1429 1433 1437 1441 1444 1447 1450 1452 1454 1455 1456 1456 1456 1456 1456 1456